(673071) = 2007 EQ39 = 2015 AN238

Discovered at Mount Lemmon on 2007-03-13 by Mount Lemmon Survey.

Orbit

Orbit type: Main Belt

Note: WebGL enabled browser required.

epoch2024-03-31.0
epoch JD2460400.5
perihelion date2023-05-04.46710
perihelion JD2460068.96710
argument of perihelion (°)333.06540
ascending node (°)172.38466
inclination (°)9.52645
eccentricity0.0730279
perihelion distance (AU)2.3678728
Tisserand w.r.t. Jupiter3.4
ΔV w.r.t. Earth (km/sec)10.1
semimajor axis (AU)2.5544164
mean anomaly (°)80.03739
mean daily motion (°/day)0.24141610
aphelion distance (AU)2.741
period (years)4.08
P-vector [x]-0.82446003
P-vector [y]0.54446633
P-vector [z]0.15434403
Q-vector [x]-0.56549502
Q-vector [y]-0.80317901
Q-vector [z]-0.18740026
absolute magnitude17.54
phase slope0.15
uncertainty0
referenceMPO 807379
observations used175
oppositions11
arc length (days)8711
first opposition used1999
last opposition used2023
residual rms (arc-secs)0.77
perturbers coarse indicatorM-v
perturbers precise indicator003Ek
first observation date used1999-03-22.0
last observation date used2023-01-26.0
computer nameBell

Observations

176 total observations over interval: 1999 03 22.314190 – 2023 01 26.327107
These data are available for download (format description).

Date (UT) J2000 RA J2000 Dec Magn Location Ref
1999 03 22.314190 12 29 03.071 +00 25 17.13 20.64 V 645 – Apache Point-Sloan Digital Sky Survey MPS 713946
1999 03 22.317662 12 29 02.906 +00 25 19.23 21.59   645 – Apache Point-Sloan Digital Sky Survey MPS 713946
2007 03 13.01994 10 45 20.97 +05 39 04.4 20.5 V 198 – Wildberg MPS 203261
2007 03 13.02111 10 45 20.91 +05 39 05.0 20.6 V 198 – Wildberg MPS 203261
2007 03 13.02928 10 45 20.52 +05 39 09.8 20.6 V 198 – Wildberg MPS 203261
2007 03 13.03278 10 45 20.35 +05 39 11.8 20.6 V 198 – Wildberg MPS 203261
2007 03 13.04095 10 45 19.95 +05 39 16.3 20.6 V 198 – Wildberg MPS 203261
2007 03 13.25101 10 45 10.80 +05 41 20.0 19.9 V G96 – Mt. Lemmon Survey MPS 204705
2007 03 13.25913 10 45 10.40 +05 41 24.5 19.7 V G96 – Mt. Lemmon Survey MPS 204705
2007 03 13.26537 10 45 10.11 +05 41 28.2 19.8 V G96 – Mt. Lemmon Survey MPS 204705
2007 03 13.27162 10 45 09.82 +05 41 31.9 19.8 V G96 – Mt. Lemmon Survey MPS 204705
2007 03 14.00411 10 44 37.35 +05 48 35.9 20.4 V 198 – Wildberg MPS 203261
2007 03 14.01111 10 44 37.03 +05 48 40.3 20.4 V 198 – Wildberg MPS 203261
2007 03 14.01462 10 44 36.87 +05 48 42.2 20.3 V 198 – Wildberg MPS 203261
2007 03 14.01812 10 44 36.71 +05 48 44.3 20.2 V 198 – Wildberg MPS 203261
2007 03 14.02279 10 44 36.50 +05 48 46.9 20.5 V 198 – Wildberg MPS 203261
2007 03 14.02863 10 44 36.24 +05 48 50.2 20.4 V 198 – Wildberg MPS 203261
2007 03 14.95845 10 43 55.73 +05 57 46.7 20.2 V A74 – Bergen-Enkheim Observatory MPS 203261
2007 03 14.96031 10 43 55.65 +05 57 47.8 20.3 V A74 – Bergen-Enkheim Observatory MPS 203261
2007 03 14.97401 10 43 54.96 +05 57 55.6 20.1 V A74 – Bergen-Enkheim Observatory MPS 203261
2007 03 14.98126 10 43 54.67 +05 57 59.7 19.8 V A74 – Bergen-Enkheim Observatory MPS 203261
2007 03 14.98815 10 43 54.36 +05 58 03.9 21.1 V A74 – Bergen-Enkheim Observatory MPS 203261
2009 10 16.33651 01 39 33.26 +01 52 31.1 20.4 V G96 – Mt. Lemmon Survey MPS 815609
2009 10 16.34269 01 39 32.97 +01 52 28.2 21.0 V G96 – Mt. Lemmon Survey MPS 815609
2009 10 16.34892 01 39 32.65 +01 52 24.9 20.8 V G96 – Mt. Lemmon Survey MPS 815609
2009 10 16.35505 01 39 32.25 +01 52 22.2 20.1 V G96 – Mt. Lemmon Survey MPS 815609
2009 10 24.27712 01 32 58.81 +00 50 09.6 21.1 V G96 – Mt. Lemmon Survey MPS 815609
2009 10 24.28381 01 32 58.48 +00 50 06.2 21.3 V G96 – Mt. Lemmon Survey MPS 815609
2009 10 24.29074 01 32 58.16 +00 50 03.0 20.9 V G96 – Mt. Lemmon Survey MPS 815609
2009 10 24.29757 01 32 57.80 +00 50 00.6 20.9 V G96 – Mt. Lemmon Survey MPS 815609
2011 01 30.40769 10 18 49.947 +02 45 29.36 21.4 w F51 – Pan-STARRS 1, Haleakala MPS 713946
2011 01 30.43853 10 18 48.771 +02 45 40.70 21.4 w F51 – Pan-STARRS 1, Haleakala MPS 713946
2011 01 30.45330 10 18 48.199 +02 45 45.95 21.3 w F51 – Pan-STARRS 1, Haleakala MPS 713946
2011 02 04.45409 10 15 32.158 +03 18 42.89 21.2 w F51 – Pan-STARRS 1, Haleakala MPS 713946
2011 02 04.46836 10 15 31.532 +03 18 48.95 21.3 w F51 – Pan-STARRS 1, Haleakala MPS 713946
2011 02 04.48281 10 15 30.887 +03 18 55.05 21.2 w F51 – Pan-STARRS 1, Haleakala MPS 713946
2013 10 12.32565 01 00 07.15 -00 06 59.7 20.8 V G96 – Mt. Lemmon Survey MPS 815609
2013 10 12.33351 01 00 06.75 -00 07 03.3 20.6 V G96 – Mt. Lemmon Survey MPS 815609
2013 10 12.34127 01 00 06.38 -00 07 07.1 20.8 V G96 – Mt. Lemmon Survey MPS 815609
2013 10 12.34911 01 00 05.95 -00 07 11.1 20.7 V G96 – Mt. Lemmon Survey MPS 815609
2013 10 27.32609 00 48 49.783 -01 57 25.30 21.5 w F51 – Pan-STARRS 1, Haleakala MPS 815609
2013 10 27.34160 00 48 49.127 -01 57 30.99 21.5 w F51 – Pan-STARRS 1, Haleakala MPS 815609
2013 10 27.35715 00 48 48.483 -01 57 36.74 21.2 w F51 – Pan-STARRS 1, Haleakala MPS 815609
2013 10 27.37277 00 48 47.841 -01 57 42.64 21.2 w F51 – Pan-STARRS 1, Haleakala MPS 815609
2014 11 28.58894 09 30 45.021 +04 57 21.04 21.9 w F51 – Pan-STARRS 1, Haleakala MPS 713946
2014 11 28.60207 09 30 45.565 +04 57 17.02 21.7 w F51 – Pan-STARRS 1, Haleakala MPS 713946
2014 11 28.61526 09 30 46.062 +04 57 13.33 21.6 w F51 – Pan-STARRS 1, Haleakala MPS 713946
2015 01 15.43768 09 34 48.944 +03 58 15.55 20.9 w F51 – Pan-STARRS 1, Haleakala MPS 563100
2015 01 15.44963 09 34 48.515 +03 58 18.14 20.9 w F51 – Pan-STARRS 1, Haleakala MPS 563100
2015 01 15.46160 09 34 48.096 +03 58 20.96 21.0 w F51 – Pan-STARRS 1, Haleakala MPS 563100
2015 01 17.52162 09 33 36.125 +04 06 33.76 20.9 w F51 – Pan-STARRS 1, Haleakala MPS 563100
2015 01 17.53460 09 33 35.624 +04 06 37.08 20.8 w F51 – Pan-STARRS 1, Haleakala MPS 563100
2015 01 17.54787 09 33 35.116 +04 06 40.49 20.7 w F51 – Pan-STARRS 1, Haleakala MPS 563100
2015 01 17.56074 09 33 34.617 +04 06 43.70 20.6 w F51 – Pan-STARRS 1, Haleakala MPS 563100
2015 01 26.42639 09 27 24.71 +04 52 58.0 21.0 r G45 – Space Surveillance Telescope, Atom Site MPS 583408
2015 01 26.43643 09 27 24.25 +04 53 01.1 20.5 r G45 – Space Surveillance Telescope, Atom Site MPS 583408
2015 01 26.44961 09 27 23.60 +04 53 05.5 20.9 r G45 – Space Surveillance Telescope, Atom Site MPS 583408
2015 01 26.45369 09 27 23.40 +04 53 06.4 20.7 r G45 – Space Surveillance Telescope, Atom Site MPS 583408
2015 01 27.42339 09 26 38.09 +04 59 11.1 20.8 r G45 – Space Surveillance Telescope, Atom Site MPS 583408
2015 01 27.43343 09 26 37.63 +04 59 14.2 20.3 r G45 – Space Surveillance Telescope, Atom Site MPS 583408
2015 01 27.43764 09 26 37.40 +04 59 16.5 21.0 r G45 – Space Surveillance Telescope, Atom Site MPS 583408
2015 01 27.44660 09 26 36.96 +04 59 19.6 20.5 r G45 – Space Surveillance Telescope, Atom Site MPS 583408
2015 01 27.45068 09 26 36.72 +04 59 21.0 20.3 r G45 – Space Surveillance Telescope, Atom Site MPS 583408
2015 02 09.69079 09 15 27.93 +06 37 35.5 20.8 R D29 – Purple Mountain Observatory, XuYi Station MPS 713946
2015 02 09.70931 09 15 26.89 +06 37 44.2 20.2 R D29 – Purple Mountain Observatory, XuYi Station MPS 713946
2015 02 09.72782 09 15 25.92 +06 37 53.4 20.2 R D29 – Purple Mountain Observatory, XuYi Station MPS 713946
2017 08 24.52300 00 50 23.081 +03 47 16.63 21.7 w F51 – Pan-STARRS 1, Haleakala MPS 812104
2017 08 24.54770 00 50 22.655 +03 47 08.43 21.8 w F51 – Pan-STARRS 1, Haleakala MPS 812104
2017 09 15.45865 00 39 42.177 +01 12 05.08 21.4 w F51 – Pan-STARRS 1, Haleakala MPS 817081
2017 09 15.47079 00 39 41.656 +01 11 58.96 21.3 w F51 – Pan-STARRS 1, Haleakala MPS 817081
2017 09 15.48296 00 39 41.127 +01 11 52.74 21.2 w F51 – Pan-STARRS 1, Haleakala MPS 817081
2017 09 15.49514 00 39 40.601 +01 11 46.75 21.2 w F51 – Pan-STARRS 1, Haleakala MPS 817081
2017 09 25.43071 00 32 16.822 -00 14 41.73 21.1 w F51 – Pan-STARRS 1, Haleakala MPS 819195
2017 09 25.44335 00 32 16.207 -00 14 48.35 21.0 w F51 – Pan-STARRS 1, Haleakala MPS 819195
2017 09 25.45605 00 32 15.577 -00 14 55.10 21.0 w F51 – Pan-STARRS 1, Haleakala MPS 819195
2017 09 25.46875 00 32 14.949 -00 15 01.88 20.8 w F51 – Pan-STARRS 1, Haleakala MPS 819195
2017 09 26.39227 00 31 31.457 -00 23 12.14 21.0 w F51 – Pan-STARRS 1, Haleakala MPS 819195
2017 09 26.40406 00 31 30.863 -00 23 18.49 20.9 w F51 – Pan-STARRS 1, Haleakala MPS 819195
2017 09 26.41587 00 31 30.285 -00 23 24.69 21.0 w F51 – Pan-STARRS 1, Haleakala MPS 819195
2017 09 28.39749 00 29 55.77 -00 40 55.7   G96 – Mt. Lemmon Survey MPS 819195
2017 09 28.40961 00 29 55.13 -00 41 02.8 21.5 V G96 – Mt. Lemmon Survey MPS 819195
2017 09 28.41812 00 29 54.71 -00 41 07.7 21.1 V G96 – Mt. Lemmon Survey MPS 819195
2017 09 28.42337 00 29 54.46 -00 41 10.0 21.3 V G96 – Mt. Lemmon Survey MPS 819195
2017 09 29.48500 00 29 03.750 -00 50 30.02 21.0 w F51 – Pan-STARRS 1, Haleakala MPS 819195
2017 09 29.49646 00 29 03.198 -00 50 36.16 21.1 w F51 – Pan-STARRS 1, Haleakala MPS 819195
2017 10 17.23675 00 15 36.57 -03 14 05.2 21.1 G G96 – Mt. Lemmon Survey MPS 826432
2017 10 17.24202 00 15 36.38 -03 14 07.6 21.1 G G96 – Mt. Lemmon Survey MPS 826432
2017 10 17.24725 00 15 36.10 -03 14 09.6 21.2 G G96 – Mt. Lemmon Survey MPS 826432
2017 10 17.25259 00 15 35.92 -03 14 11.8 20.7 G G96 – Mt. Lemmon Survey MPS 826432
2017 10 22.37830 00 12 22.605 -03 47 52.95 21.5 w F51 – Pan-STARRS 1, Haleakala MPS 828280
2017 10 22.39297 00 12 22.054 -03 47 58.36 21.5 w F51 – Pan-STARRS 1, Haleakala MPS 828280
2017 10 22.40765 00 12 21.519 -03 48 03.71 21.3 w F51 – Pan-STARRS 1, Haleakala MPS 828280
2017 10 22.42231 00 12 20.977 -03 48 09.07 21.4 w F51 – Pan-STARRS 1, Haleakala MPS 828280
2019 01 27.27919 08 30 31.09 +07 07 28.8 20.2 G G96 – Mt. Lemmon Survey MPS 952717
2019 01 27.28430 08 30 30.79 +07 07 30.6 20.1 G G96 – Mt. Lemmon Survey MPS 952717
2019 01 27.28943 08 30 30.50 +07 07 32.7 20.6 G G96 – Mt. Lemmon Survey MPS 952717
2019 01 27.29455 08 30 30.20 +07 07 34.5 20.8 G G96 – Mt. Lemmon Survey MPS 952717
